Cooma Snowy Mountains Air,

8:58 AM AEDT on December 12, 2017 (GMT +1100)
Cooma Snowy Mountains Air

Weather History for YCOM - June, 2014

Change the Weather History Date:

Monday, June 16, 2014

  Actual Average Record
Temperature  
Mean Temperature 38 °F -  
Max Temperature 51 °F - - ()
Min Temperature 26 °F - - ()
Degree Days  
Heating Degree Days 26    
Moisture  
Dew Point 32 °F    
Average Humidity 79    
Maximum Humidity 100    
Minimum Humidity 47    
Precipitation  
Precipitation 0.00 in - - ()
Sea Level Pressure  
Sea Level Pressure 30.07 in    
Wind  
Wind Speed 7 mph ()    
Max Wind Speed 17 mph    
Max Gust Speed -    
Visibility 6.2 miles    
Events      
T = Trace of Precipitation, MM = Missing Value Source: Averaged Metar Reports

Daily Weather History Graph

Daily Weather History Graph

Search for Another Location

Airport or City:

Trip Planner

Search our weather history database for the weather conditions in past years. The results will help you decide how hot, cold, wet, or windy it might be!

Date:

Astronomy

Jun. 16, 2014 Rise Set
Actual Time 7:13 AM AEST 4:55 PM AEST
Civil Twilight 6:45 AM AEST 5:24 PM AEST
Nautical Twilight 6:12 AM AEST 5:56 PM AEST
Astronomical Twilight 5:41 AM AEST 6:27 PM AEST
Moon 8:34 PM AEST (6/16) 9:29 AM AEST (6/16)
Length of Visible Light 10h 39m
Length of Day
9h 41m
Waning Gibbous, 88% of the Moon is Illuminated
Jun 16
Waning Gibbous
Jun 20
Last Quarter
Jun 27
New
Jul 5
First Quarter
Jul 12
Full

Hourly Weather History & Observations

Time (AEST) Temp. Windchill Dew Point Humidity Pressure Visibility Wind Dir Wind Speed Gust Speed Precip Events Conditions
12:00 AM 33.8 °F 26.4 °F 32.0 °F 93% 30.04 in 6.2 mi SW 9.2 mph - N/A   Unknown
1:00 AM 33.8 °F 27.7 °F 32.0 °F 93% 30.04 in 6.2 mi SW 6.9 mph - N/A   Unknown
2:00 AM 30.2 °F 23.4 °F 28.4 °F 93% 30.04 in 6.2 mi SSW 6.9 mph - N/A   Unknown
3:00 AM 30.2 °F 23.4 °F 28.4 °F 93% 30.04 in 6.2 mi West 6.9 mph - N/A   Unknown
4:00 AM 28.4 °F - 26.6 °F 93% 30.04 in 6.2 mi Calm Calm - N/A   Unknown
5:00 AM 26.6 °F 22.6 °F 26.6 °F 100% 30.04 in 6.2 mi ENE 3.5 mph - N/A   Unknown
6:00 AM 26.6 °F 21.2 °F 24.8 °F 93% 30.04 in 6.2 mi NNE 4.6 mph - N/A   Unknown
7:00 AM 26.6 °F 22.6 °F 24.8 °F 93% 30.06 in 6.2 mi NNE 3.5 mph - N/A   Unknown
8:00 AM 28.4 °F 22.2 °F 28.4 °F 100% 30.06 in 6.2 mi NNE 5.8 mph - N/A   Unknown
9:00 AM 35.6 °F 29.9 °F 32.0 °F 87% 30.06 in 6.2 mi NE 6.9 mph - N/A   Unknown
10:00 AM 41.0 °F 35.2 °F 35.6 °F 81% 30.09 in 6.2 mi NE 9.2 mph - N/A   Unknown
11:00 AM 51.8 °F - 32.0 °F 47% 30.06 in 6.2 mi WNW 12.7 mph - N/A   Unknown
12:00 PM 51.8 °F - 33.8 °F 50% 30.06 in 6.2 mi West 16.1 mph - N/A   Unknown
1:00 PM 48.2 °F - 30.2 °F 50% 30.06 in 6.2 mi West 17.3 mph - N/A   Unknown
2:00 PM 48.2 °F - 33.8 °F 58% 30.06 in 6.2 mi West 17.3 mph - N/A   Unknown
3:00 PM 46.4 °F 41.9 °F 33.8 °F 62% 30.06 in 6.2 mi West 9.2 mph - N/A   Scattered Clouds
4:00 PM 46.4 °F - 35.6 °F 66% 30.06 in 6.2 mi South 2.3 mph - N/A   Mostly Cloudy
5:00 PM 46.4 °F 42.9 °F 35.6 °F 66% 30.06 in 6.2 mi SW 6.9 mph - N/A   Unknown
6:00 PM 44.6 °F 40.2 °F 35.6 °F 71% 30.09 in 6.2 mi WNW 8.1 mph - N/A   Scattered Clouds
7:00 PM 42.8 °F 36.6 °F 35.6 °F 76% 30.09 in 6.2 mi WNW 11.5 mph - N/A   Unknown
8:00 PM 44.6 °F 39.2 °F 35.6 °F 71% 30.09 in 6.2 mi NW 10.4 mph - N/A   Scattered Clouds
9:00 PM 44.6 °F 39.2 °F 37.4 °F 76% 30.12 in 6.2 mi NW 10.4 mph - N/A   Mostly Cloudy
10:00 PM 39.2 °F 33.6 °F 35.6 °F 87% 30.12 in 6.2 mi SSW 8.1 mph - N/A   Scattered Clouds
11:00 PM 39.2 °F 33.6 °F 35.6 °F 87% 30.09 in 6.2 mi West 8.1 mph - N/A   Scattered Clouds